Regional Weather Roundup
Issued by NWS State College, PA

Home | Current Version | Previous Version | Text Only | Print | Product List | Glossary On
Versions: 1 2 3 4 5 6 7 8 9 10 11 12 13 14 15 16 17 18 19 20 21 22 23 24 25 26 27 28 29 30 31 32 33 34 35 36 37 38 39 40 41 42 43 44 45 46 47 48 49 50
000
ASUS41 KCTP 231110
RWRCTP

REGIONAL WEATHER ROUNDUP
NATIONAL WEATHER SERVICE STATE COLLEGE PA
700 AM EDT SAT MAY 23 2015

Note: "fair" indicates few or no clouds below 12,000 feet with no
significant weather and/or obstructions to visibility.

* = STATION THAT DOES NOT REPORT PRECIPITATION /E.G. RAIN...SNOW...ETC/
    THUNDER OR FOG.

PAZ002>004-007>009-013>016-020>023-029>032-231200-
WESTERN PENNSYLVANIA

CITY           SKY/WX    TMP DP  RH WIND       PRES   REMARKS
ERIE           SUNNY     39  30  70 S6        30.41R
MEADVILLE      SUNNY     37  30  75 CALM      30.40R
FRANKLIN*      SUNNY     34  27  75 CALM      30.41R
NEW CASTLE     FAIR      36  35  96 CALM      30.43R
BEAVER COUNTY  CLEAR     41  28  60 CALM      30.41
BUTLER*        SUNNY     34  30  86 CALM      30.43R
PITTSBURGH INT PTCLDY    39  33  79 CALM      30.41R
PITTSBURGH     SUNNY     42  32  67 CALM      30.40R
INDIANA*       SUNNY     34  32  93 CALM      30.45R
LATROBE        SUNNY     34  32  93 CALM      30.44R
WASHINGTON CO* CLEAR     34  32  93 CALM      30.42R
$$

PAZ004>006-010>012-017>019-024>028-033>037-041-042-045-046-049>053-231200-
CENTRAL PENNSYLVANIA

CITY           SKY/WX    TMP DP  RH WIND       PRES   REMARKS
BRADFORD       SUNNY     29  24  82 CALM      30.38R
DUBOIS         SUNNY     38  26  62 CALM      30.39R
CLEARFIELD     SUNNY     33  29  85 CALM      30.41R
JOHNSTOWN      SUNNY     37  23  56 SW7       30.39R
ALTOONA        SUNNY     39  30  70 CALM      30.41R
STATE COLLEGE  SUNNY     37  27  65 CALM      30.42R
WILLIAMSPORT   SUNNY     41  31  67 CALM      30.41R
SELINSGROVE    SUNNY     43  32  65 NW3       30.43R
FT INDIANTOWN  SUNNY     47  28  46 VRB5      30.41R
CAPITAL CITY   SUNNY     51  23  33 N9        30.41R
HARRISBURG     MOSUNNY   50  23  34 N6        30.41R
YORK           MOSUNNY   43  38  82 NW5       30.40R
$$

PAZ038>040-043-044-047-048-054-055-060>062-067>071-231200-
EASTERN PENNSYLVANIA

CITY           SKY/WX    TMP DP  RH WIND       PRES   REMARKS
SCRANTON       SUNNY     43  27  53 N7        30.38R
MOUNT POCONO   SUNNY     37  25  61 NW13      30.32R
ALLENTOWN      SUNNY     47  28  47 NW3       30.40R
QUAKERTOWN*    SUNNY     46  28  49 N6        30.40R
READING        SUNNY     48  29  47 N5        30.40R
LANCASTER      SUNNY     47  29  49 N7        30.40R
COATESVILLE    SUNNY     48  27  43 N6        30.40R
POTTSTOWN      SUNNY     47  29  49 N12       30.40R
BLUE BELL      SUNNY     50  30  46 CALM      30.38R
DOYLESTOWN     SUNNY     45  32  60 N5        30.39R
WILLOW GROVE   NOT AVBL
NORTH PHILA    SUNNY     51  26  37 N15       30.39R
PHILADELPHIA   MOSUNNY   52  27  38 N10       30.40R
$$


USA.gov is the U.S. government's official web portal to all federal, state and local government web resources and services.